Wind_Speed
3 2 2 2 2 2 3 3 3 3 3 4 3 3 4 4 4 4 5 5 6 6 5 6 6 6 5 6 6 6 6 5 5 5 4 4 5 5 6 6 6 7 7 7 8 8 8 8 8
3 3 3 3 2 2 3 4 3 3 3 3 4 4 4 4 4 4 5 6 6 6 6 7 7 6 6 6 6 6 6 6 5 5 5 5 6 5 6 6 7 7 7 8 8 8 8 8 9
4 3 3 3 3 3 3 4 4 3 3 3 4 5 5 5 5 5 6 6 7 6 6 6 6 6 6 6 6 6 6 5 6 6 5 5 6 6 6 7 7 7 7 8 8 8 8 9 9
4 4 4 4 4 4 4 4 4 3 3 3 4 5 5 5 5 6 6 6 7 7 7 6 6 5 6 6 5 5 5 6 6 5 5 5 5 6 6 7 7 7 8 9 9 8 8 8 9
4 4 4 4 4 4 4 4 4 3 3 4 4 5 5 5 6 6 6 6 7 7 7 7 6 6 6 6 5 4 5 6 5 5 5 6 6 6 6 6 7 7 8 8 8 9 10 9 10
4 4 4 4 4 4 4 4 4 4 4 4 5 5 6 7 7 6 6 6 6 6 6 6 5 6 6 5 4 5 5 5 5 5 6 6 6 6 6 6 6 7 7 7 8 9 9 9 10
4 4 4 5 4 4 4 4 5 5 5 5 5 5 6 7 7 7 7 7 7 7 7 6 6 6 6 5 4 5 5 4 5 6 6 6 6 6 6 7 7 7 8 8 8 8 8 9 10
5 5 5 5 5 5 5 5 5 5 6 5 5 6 6 7 7 7 7 7 7 7 7 7 6 5 5 5 5 4 4 4 5 6 6 6 5 6 6 7 6 7 7 8 8 8 8 8 9
5 6 6 6 6 5 6 6 6 6 6 6 6 6 7 7 7 7 7 7 7 7 6 6 5 4 4 4 4 4 4 4 4 5 5 5 5 5 5 6 7 7 7 7 7 8 7 8 8
5 6 6 6 6 6 6 6 6 7 6 7 7 7 7 7 7 7 7 7 7 7 6 6 5 4 3 3 4 4 4 4 3 4 4 4 5 5 5 5 6 6 6 5 7 7 7 7 7
5 6 7 7 6 6 6 6 6 6 7 7 7 7 7 7 7 7 7 7 7 7 6 6 5 5 3 3 4 4 4 4 3 3 3 4 4 4 4 5 5 5 5 5 6 6 6 6 6
6 6 7 7 7 6 6 6 6 6 6 6 6 7 7 7 7 7 7 7 7 6 6 5 5 4 3 3 3 3 3 3 3 3 3 3 4 4 4 4 4 5 5 5 5 5 5 6 6
6 6 7 7 7 7 6 6 6 6 6 6 6 6 6 6 6 6 6 6 7 6 5 4 4 4 3 3 2 2 3 2 2 3 3 3 3 3 3 3 4 4 4 3 4 5 5 5 6
6 7 7 7 7 7 7 7 7 7 7 7 7 7 7 7 7 7 7 7 6 6 5 5 4 4 3 2 2 2 2 2 2 3 3 3 3 3 3 3 3 3 3 3 3 4 5 5 5
6 7 7 7 7 7 7 7 7 7 7 7 7 7 7 7 7 7 7 7 6 5 5 5 4 3 2 2 2 3 3 2 2 2 3 3 3 3 3 3 3 3 3 3 3 3 4 4 5
7 7 8 7 8 8 7 7 7 8 8 8 8 7 7 7 7 7 7 6 6 5 5 5 4 3 2 2 2 3 3 3 3 3 3 3 3 3 3 3 2 2 3 3 3 3 4 3 3
7 7 8 8 9 8 8 7 7 8 8 8 8 7 7 7 7 7 7 6 5 5 5 4 3 2 1 2 3 3 3 3 3 3 3 3 3 3 3 3 2 2 2 2 3 4 3 3 2
7 8 8 8 9 8 8 8 7 7 8 8 8 7 7 7 7 7 6 5 5 5 5 4 2 2 2 2 3 3 4 3 3 3 3 3 3 3 3 3 2 2 2 3 3 3 3 3 3
8 8 8 8 9 8 8 8 8 7 7 7 7 7 7 6 6 6 5 4 5 4 4 4 3 2 3 3 3 3 4 3 3 3 3 3 3 3 3 3 2 2 2 3 3 3 3 3 2
8 8 9 8 8 8 8 8 8 8 7 7 7 7 6 5 5 5 5 5 5 4 4 4 3 3 3 4 4 3 4 4 4 4 4 4 3 3 2 2 2 2 2 3 3 3 3 2 3
9 9 9 8 8 8 8 7 8 8 8 8 8 7 6 6 5 5 5 5 5 5 4 4 3 3 3 4 4 4 4 4 4 4 4 4 3 3 2 2 2 2 3 3 3 3 2 2 2
10 10 9 9 9 8 8 7 8 8 8 8 8 7 7 6 6 6 5 5 5 5 4 4 3 3 4 4 4 4 4 4 4 4 4 3 3 2 2 2 3 3 3 3 2 2 3 2 3
11 11 10 10 10 9 8 8 7 8 8 8 8 7 7 6 6 6 6 6 6 5 5 4 4 4 4 4 4 4 4 4 4 4 3 2 2 2 2 2 2 3 3 3 2 3 3 3 3
13 12 12 11 11 9 9 9 7 8 8 8 8 7 7 7 6 6 7 7 6 6 5 5 5 5 4 5 5 5 5 4 4 3 3 2 2 2 2 2 2 2 2 2 2 3 3 4 4
14 14 13 12 11 10 10 9 8 8 8 8 8 7 8 7 7 7 7 8 8 7 6 6 6 6 6 6 6 6 5 5 4 4 3 3 3 3 3 3 2 2 3 3 2 3 3 4 4
15 14 14 13 13 12 11 10 9 9 8 8 8 8 8 8 8 7 7 8 8 8 8 8 7 7 7 7 7 6 5 5 5 4 4 4 4 4 3 3 3 3 3 3 3 3 3 3 3
16 16 15 15 14 13 12 11 10 10 9 9 9 9 9 9 8 8 8 8 8 9 9 9 9 8 7 7 7 6 6 5 5 5 5 5 5 5 4 4 4 4 4 3 3 3 3 3 3
17 17 17 16 15 14 13 11 11 11 11 10 10 10 10 9 9 9 9 10 10 10 10 10 10 9 8 8 8 7 7 6 6 6 6 5 5 6 5 5 5 4 4 4 3 3 3 3 3
19 18 18 18 17 16 15 13 12 12 11 11 10 11 11 10 10 10 11 11 11 11 11 11 11 11 10 9 9 8 8 8 8 8 8 7 6 6 6 5 5 5 5 5 5 4 4 4 5
21 20 19 19 19 18 17 16 15 14 13 12 12 12 12 12 12 12 12 12 12 11 11 12 12 12 11 11 10 10 9 9 9 9 9 9 8 7 7 7 6 6 6 6 5 5 5 5 5
Wind_Direction
38 37 13 355 342 340 359 1 4 12 9 11 15 20 11 2 355 352 351 352 344 334 321 319 315 320 324 325 328 325 321 314 309 299 292 282 280 280 276 283 273 258 251 248 246 247 247 247 249
20 16 3 348 347 339 346 349 349 352 2 2 357 356 359 357 349 347 346 347 341 334 325 322 315 319 321 318 316 316 313 308 302 292 287 285 283 282 283 280 277 263 257 254 249 249 244 248 249
8 2 2 358 355 333 329 332 335 331 341 340 339 342 345 349 346 339 337 339 339 330 321 318 316 316 316 314 312 310 307 303 295 283 283 285 284 283 283 280 271 268 261 257 253 246 244 248 248
0 357 354 349 352 344 330 324 325 312 326 330 329 335 335 336 336 335 328 332 333 330 326 322 323 318 315 311 307 303 302 302 291 282 284 285 285 284 285 281 271 267 262 259 255 251 249 249 249
341 347 349 346 343 339 339 334 328 323 328 334 331 330 332 328 331 332 329 332 333 331 331 325 323 321 316 306 298 303 301 298 288 281 283 283 281 279 280 277 266 264 261 256 254 252 255 253 248
341 344 344 343 336 331 343 344 337 333 330 336 333 328 329 329 330 334 333 333 330 326 326 321 319 316 315 315 306 300 299 294 286 279 278 283 278 277 273 269 268 267 266 262 254 251 250 249 248
338 340 343 341 332 328 331 335 337 341 332 331 330 327 329 328 331 331 328 328 328 325 320 315 316 313 309 310 312 306 298 289 280 276 275 273 272 276 271 267 265 264 264 266 259 257 255 253 252
343 340 343 341 329 327 324 323 331 333 333 330 323 321 327 326 328 328 327 328 328 325 320 313 312 312 309 308 304 306 302 295 283 275 273 268 270 274 267 264 261 262 262 260 258 259 259 253 252
340 339 342 340 329 326 326 324 327 322 322 322 320 318 321 324 325 324 324 325 325 325 322 317 307 310 310 308 309 313 305 299 289 275 271 264 268 270 265 263 258 260 259 253 250 254 254 248 248
334 335 336 337 331 324 323 321 322 316 314 316 315 316 320 321 322 320 324 323 320 321 322 320 315 311 311 314 317 315 312 309 292 276 276 272 266 267 266 267 261 256 254 247 247 249 250 248 243
328 328 334 334 333 328 324 320 320 320 316 316 316 316 316 318 318 319 319 320 316 314 316 315 316 316 311 308 309 307 310 306 289 274 268 271 267 266 271 271 266 259 263 262 258 247 242 246 245
325 326 329 331 333 330 327 322 320 320 318 317 318 317 314 317 322 321 320 317 313 309 309 313 313 309 303 300 301 304 316 309 292 287 278 277 275 274 279 272 269 258 257 254 252 241 240 241 246
318 323 326 329 331 329 329 327 319 317 319 320 320 319 315 315 321 321 319 315 313 314 312 315 317 322 308 300 292 299 311 309 296 303 300 292 293 292 291 279 267 255 247 250 256 248 245 239 243
311 315 320 324 326 327 327 327 326 321 322 323 320 319 315 313 316 320 319 316 308 307 310 312 307 313 310 291 281 288 293 287 305 315 303 300 300 305 304 283 271 248 237 246 251 252 252 246 252
305 310 314 314 317 322 324 327 328 325 322 320 319 321 317 318 317 314 316 315 310 305 310 311 303 299 306 290 273 289 292 285 289 308 299 296 295 291 293 291 284 255 244 243 244 250 264 256 253
307 308 311 311 312 313 316 322 327 326 323 318 315 316 316 317 315 311 311 313 308 304 305 307 293 288 292 284 273 282 289 294 292 292 292 297 293 284 293 292 282 271 253 243 244 250 265 251 250
305 305 305 307 309 312 312 316 322 325 322 318 315 313 310 311 313 311 312 308 305 305 308 304 290 294 309 290 275 281 289 301 296 293 294 294 283 279 292 290 275 261 251 241 240 246 256 248 252
301 303 305 307 310 313 313 315 318 319 317 317 318 312 308 312 314 314 315 315 313 307 307 305 286 296 310 304 296 288 292 305 308 308 303 301 289 282 289 280 259 243 249 246 246 247 242 235 240
300 305 307 308 307 309 312 314 313 315 315 313 318 318 313 309 312 312 314 322 323 316 308 309 295 292 299 306 306 297 300 304 313 310 306 302 292 287 282 262 246 248 253 253 244 233 232 229 227
297 302 304 303 302 304 309 314 315 315 312 308 311 320 320 312 308 311 311 315 316 318 314 308 297 290 290 295 302 299 298 301 306 306 301 294 291 282 276 243 229 234 241 245 234 233 234 226 224
291 296 297 298 299 301 306 311 312 314 313 309 308 315 320 319 311 301 301 309 308 311 312 305 296 293 300 301 301 295 291 293 296 297 296 290 286 274 250 236 229 229 227 233 237 232 231 225 233
284 288 289 292 296 299 302 308 311 310 311 311 311 310 312 312 308 302 296 299 302 305 306 301 295 304 307 304 299 292 292 293 294 293 298 285 274 255 239 234 230 227 228 236 236 233 237 245 247
277 280 286 291 295 297 300 304 311 310 310 313 310 310 310 307 300 298 293 292 292 296 299 296 297 302 304 303 299 296 294 295 296 295 294 279 247 235 228 221 218 227 232 239 246 240 245 254 257
269 273 279 287 290 292 298 301 310 313 310 309 308 308 306 303 296 292 289 289 290 290 287 289 294 298 299 301 302 298 293 287 287 286 281 269 248 234 224 211 216 230 228 228 248 248 254 258 262
266 270 274 279 286 292 294 294 303 308 309 310 309 307 304 301 298 292 290 288 290 289 283 283 289 292 293 296 299 299 288 279 274 272 271 258 242 232 227 222 229 245 240 238 246 253 265 264 262
266 268 272 276 285 290 288 292 298 302 306 309 307 306 305 303 303 301 294 291 287 284 281 279 282 286 289 292 294 292 279 273 265 263 261 253 243 235 229 233 246 251 244 244 258 268 276 268 261
263 263 268 273 278 283 284 286 292 296 298 298 298 300 303 302 302 299 296 294 290 283 279 275 276 278 281 285 284 282 278 271 263 259 258 254 248 238 237 245 252 250 238 240 255 266 275 272 261
260 262 265 270 275 280 283 283 285 290 292 292 292 294 294 296 298 295 293 290 288 284 277 273 273 274 276 280 278 275 275 272 266 258 252 251 248 245 244 246 249 245 237 244 252 269 279 273 262
258 260 263 267 271 277 282 281 284 288 289 287 288 290 290 290 292 292 288 287 285 282 278 271 270 271 272 276 276 271 269 271 265 257 250 246 250 248 242 241 244 245 245 255 259 268 272 275 270
256 259 261 265 269 274 279 281 282 284 286 286 286 286 287 286 287 288 288 285 283 281 278 273 268 269 271 275 276 271 266 268 263 257 251 248 246 247 248 248 250 251 254 261 264 271 272 275 273
Height
5881 5881 5881 5882 5882 5882 5881 5881 5880 5880 5879 5879 5879 5878 5878 5878 5878 5880 5878 5875 5875 5875 5874 5874 5873 5872 5872 5872 5871 5871 5871 5871 5870 5870 5870 5870 5871 5871 5871 5871 5871 5872 5872 5873 5874 5874 5875 5875 5876
5881 5881 5882 5882 5881 5881 5881 5881 5880 5880 5880 5879 5879 5878 5878 5877 5877 5876 5876 5875 5875 5874 5873 5873 5872 5872 5871 5871 5870 5870 5870 5869 5869 5869 5869 5869 5869 5869 5870 5870 5870 5870 5871 5871 5872 5872 5873 5874 5874
5882 5882 5883 5882 5881 5881 5881 5880 5880 5880 5880 5879 5879 5878 5878 5877 5876 5876 5875 5875 5874 5874 5873 5872 5871 5871 5870 5870 5869 5869 5869 5868 5868 5868 5868 5868 5868 5868 5868 5868 5869 5869 5869 5870 5870 5871 5871 5872 5872
5883 5883 5883 5882 5881 5881 5881 5880 5880 5880 5879 5879 5878 5878 5877 5876 5876 5875 5875 5874 5873 5873 5872 5871 5870 5869 5869 5869 5868 5867 5867 5867 5867 5867 5867 5867 5867 5867 5867 5867 5867 5867 5868 5868 5868 5869 5869 5870 5871
5883 5883 5882 5882 5881 5881 5881 5880 5880 5879 5879 5879 5878 5877 5877 5876 5875 5875 5874 5873 5873 5872 5871 5870 5869 5869 5868 5867 5867 5866 5866 5866 5865 5865 5865 5865 5866 5866 5866 5866 5866 5866 5866 5866 5867 5867 5868 5868 5869
5883 5883 5882 5882 5881 5881 5880 5880 5880 5879 5879 5878 5878 5877 5876 5876 5875 5874 5873 5872 5872 5871 5870 5870 5869 5868 5867 5866 5865 5865 5865 5864 5864 5864 5864 5864 5864 5864 5864 5864 5864 5864 5864 5864 5865 5865 5866 5866 5867
5884 5883 5882 5881 5881 5880 5880 5880 5879 5879 5878 5878 5877 5877 5876 5875 5874 5873 5872 5872 5871 5870 5869 5869 5868 5867 5866 5865 5864 5864 5863 5863 5863 5863 5863 5863 5862 5863 5863 5863 5862 5862 5862 5863 5863 5863 5863 5864 5865
5883 5883 5881 5881 5881 5880 5880 5879 5878 5878 5878 5877 5877 5876 5875 5874 5873 5872 5871 5871 5870 5869 5868 5867 5867 5866 5865 5864 5863 5862 5862 5862 5861 5861 5861 5861 5861 5861 5861 5861 5861 5861 5861 5861 5861 5861 5862 5862 5863
5882 5883 5881 5881 5880 5880 5879 5878 5878 5877 5877 5876 5876 5875 5874 5873 5872 5872 5871 5870 5869 5868 5867 5866 5865 5864 5863 5863 5862 5861 5861 5860 5860 5860 5860 5860 5860 5860 5859 5859 5859 5859 5859 5859 5859 5860 5860 5861 5861
5882 5881 5881 5880 5879 5879 5878 5878 5877 5876 5876 5875 5875 5874 5873 5872 5871 5870 5870 5869 5868 5867 5866 5865 5864 5863 5862 5862 5861 5861 5860 5859 5859 5859 5859 5859 5859 5858 5858 5858 5858 5858 5858 5858 5858 5858 5859 5859 5860
5881 5880 5880 5879 5878 5878 5878 5877 5876 5875 5875 5874 5873 5873 5872 5871 5870 5869 5868 5867 5867 5866 5865 5864 5863 5862 5862 5861 5860 5860 5859 5859 5858 5858 5858 5858 5858 5857 5857 5857 5857 5857 5857 5857 5857 5857 5857 5858 5858
5880 5880 5879 5879 5878 5878 5877 5876 5875 5875 5874 5873 5872 5871 5871 5870 5869 5868 5867 5866 5865 5865 5864 5863 5862 5862 5861 5860 5860 5859 5859 5858 5858 5857 5857 5857 5857 5857 5856 5856 5856 5856 5856 5856 5856 5856 5856 5857 5857
5880 5879 5879 5878 5877 5877 5876 5875 5874 5873 5873 5872 5871 5870 5870 5869 5868 5867 5866 5865 5864 5864 5863 5862 5862 5861 5860 5860 5859 5859 5858 5858 5858 5857 5857 5856 5856 5856 5856 5855 5855 5855 5855 5855 5855 5855 5855 5856 5856
5879 5878 5878 5877 5877 5876 5875 5874 5873 5872 5872 5871 5870 5869 5869 5868 5867 5866 5865 5864 5863 5863 5862 5861 5861 5860 5860 5859 5859 5858 5858 5857 5857 5857 5856 5856 5856 5855 5855 5855 5855 5854 5854 5854 5854 5854 5855 5855 5855
5878 5878 5877 5877 5876 5875 5875 5874 5873 5872 5871 5870 5869 5868 5868 5867 5866 5865 5864 5863 5862 5862 5861 5860 5860 5859 5859 5859 5859 5858 5857 5857 5857 5856 5856 5855 5855 5855 5854 5854 5854 5854 5854 5854 5854 5854 5854 5854 5854
5877 5877 5876 5876 5875 5874 5875 5874 5872 5871 5870 5869 5868 5868 5867 5866 5865 5864 5863 5862 5862 5861 5860 5859 5859 5859 5858 5858 5858 5858 5857 5856 5856 5856 5855 5855 5854 5854 5854 5853 5853 5853 5853 5853 5853 5853 5853 5854 5854
5876 5876 5875 5875 5874 5873 5873 5872 5871 5870 5869 5868 5867 5866 5865 5865 5864 5863 5862 5861 5861 5860 5859 5859 5858 5858 5858 5858 5858 5857 5857 5856 5855 5855 5854 5854 5854 5853 5853 5853 5852 5852 5852 5852 5853 5853 5853 5853 5853
5875 5875 5874 5874 5873 5872 5872 5871 5870 5869 5868 5867 5866 5865 5864 5863 5863 5862 5861 5860 5860 5860 5859 5858 5858 5858 5857 5857 5857 5857 5856 5855 5855 5854 5854 5853 5853 5852 5852 5852 5852 5851 5851 5852 5852 5852 5852 5852 5853
5874 5874 5873 5873 5872 5871 5871 5870 5869 5868 5867 5866 5865 5864 5863 5862 5862 5861 5860 5860 5859 5859 5858 5858 5857 5857 5857 5857 5856 5856 5855 5855 5854 5853 5853 5853 5852 5852 5851 5851 5851 5851 5851 5851 5851 5852 5852 5852 5852
5872 5872 5872 5871 5870 5870 5870 5869 5868 5867 5866 5865 5864 5863 5862 5861 5861 5860 5860 5859 5859 5858 5857 5857 5857 5856 5856 5856 5856 5855 5855 5854 5853 5853 5852 5852 5851 5851 5851 5850 5851 5851 5851 5851 5851 5851 5851 5851 5852
5871 5871 5870 5870 5869 5869 5869 5869 5867 5866 5865 5864 5864 5863 5861 5860 5860 5859 5859 5859 5858 5857 5857 5856 5856 5856 5855 5855 5855 5854 5854 5853 5853 5852 5851 5851 5850 5850 5850 5850 5850 5850 5851 5851 5851 5851 5851 5851 5851
5869 5869 5868 5868 5868 5868 5868 5868 5867 5865 5864 5864 5863 5862 5861 5860 5859 5858 5858 5858 5857 5857 5856 5856 5855 5855 5854 5854 5853 5853 5853 5852 5852 5851 5851 5850 5850 5849 5850 5849 5850 5850 5850 5850 5850 5850 5850 5850 5850
5867 5866 5866 5866 5866 5866 5866 5866 5867 5865 5863 5863 5862 5861 5860 5859 5858 5857 5857 5857 5856 5856 5855 5855 5854 5854 5854 5853 5852 5852 5852 5851 5851 5850 5850 5849 5849 5849 5849 5849 5849 5849 5850 5850 5850 5850 5850 5850 5850
5864 5864 5864 5864 5864 5865 5865 5864 5865 5864 5862 5861 5860 5859 5858 5858 5857 5856 5856 5855 5855 5855 5854 5854 5853 5853 5852 5852 5851 5851 5850 5850 5850 5849 5849 5849 5849 5849 5849 5849 5849 5849 5849 5849 5849 5849 5849 5849 5849
5861 5862 5862 5862 5862 5863 5863 5862 5863 5862 5861 5860 5859 5858 5857 5856 5855 5855 5854 5854 5853 5853 5853 5853 5852 5852 5851 5851 5850 5850 5849 5849 5849 5848 5848 5848 5848 5848 5848 5848 5848 5848 5848 5848 5848 5848 5848 5848 5848
5858 5859 5860 5860 5860 5860 5860 5860 5861 5860 5859 5858 5857 5857 5856 5855 5854 5853 5853 5852 5852 5851 5851 5851 5851 5850 5850 5849 5849 5848 5848 5848 5847 5847 5847 5847 5848 5848 5848 5848 5848 5848 5848 5848 5848 5848 5848 5847 5847
5854 5855 5856 5857 5857 5857 5857 5859 5858 5858 5857 5856 5856 5855 5854 5853 5853 5852 5851 5850 5850 5849 5849 5849 5849 5848 5848 5848 5847 5847 5846 5846 5846 5846 5846 5846 5847 5847 5847 5847 5847 5847 5847 5847 5847 5847 5847 5846 5846
5851 5852 5852 5853 5853 5854 5855 5856 5856 5855 5855 5854 5854 5853 5852 5852 5851 5850 5849 5849 5848 5847 5847 5847 5846 5846 5846 5846 5846 5845 5845 5845 5845 5845 5845 5845 5845 5846 5846 5846 5846 5846 5846 5846 5846 5846 5846 5845 5845
5847 5848 5848 5849 5850 5851 5852 5855 5853 5853 5852 5852 5851 5851 5850 5849 5849 5848 5847 5846 5846 5845 5845 5844 5844 5844 5844 5844 5844 5843 5843 5843 5843 5843 5843 5844 5844 5844 5845 5845 5845 5845 5845 5845 5845 5845 5844 5844 5844
5841 5843 5844 5845 5846 5847 5848 5852 5849 5849 5849 5849 5848 5848 5847 5846 5846 5845 5845 5844 5843 5843 5842 5842 5842 5842 5842 5842 5841 5841 5841 5841 5841 5841 5842 5842 5843 5843 5843 5844 5844 5844 5844 5844 5844 5844 5843 5843 5842